Port Angeles, WA
on Saturday, January 19, 2013

Saturday
Previous Day Next Day
Daily Summary
 ActualAverageRecord
Temperature
Mean Temperature °F °F  
Max Temperature 41°F 47°F 68°F (2005)
Min Temperature 30°F 35°F 19°F (1962)
Degree Days
Heating Degree Days 30    
Moisture
Dew Point 34°F   
Average Humidity 88    
Maximum Humidity 100    
Minimum Humidity 79    
Precipitation
Precipitation 0.00 in in in ()
Wind
Wind Speed 7 mph   
Max Wind Speed 9 mph   
Max Gust Speed mph   
Visibility 10 miles   
Events     
Averages and records for this station are not official NWS values.
Key: T is trace of precipitation, MM is missing value
Source: NWS Daily Summary
Seasonal Weather Averages
Time(PST)TemperatureDew PointHumidity Pressure Visibility Wind DirectionWind SpeedGust SpeedPrecipitationEvents Conditions
12:03 AM 37.9°F 34.0°F 86% 30.34 in 10.0 miles SSE 6.9 mph - N/A   Overcast
12:13 AM 37.9°F 34.0°F 86% 30.34 in 10.0 miles SSE 5.8 mph - N/A   Overcast
12:53 AM 37.9°F 34.0°F 86% 30.34 in 10.0 miles North - - N/A   Overcast
1:53 AM 37.9°F 34.0°F 86% 30.35 in 10.0 miles SE 5.8 mph - N/A   Overcast
2:33 AM 37.9°F 35.1°F 89% 30.35 in 10.0 miles SE 6.9 mph - N/A   Overcast
2:53 AM 37.9°F 35.1°F 89% 30.36 in 10.0 miles SE 6.9 mph - N/A   Overcast
3:53 AM 37.0°F 34.0°F 89% 30.36 in 10.0 miles SE 5.8 mph - N/A   Overcast
4:53 AM 37.0°F 34.0°F 89% 30.36 in 10.0 miles SE 5.8 mph - N/A   Overcast
5:37 AM 37.0°F 34.0°F 89% 30.35 in 10.0 miles SSE 8.1 mph - N/A   Overcast
5:53 AM 37.0°F 34.0°F 89% 30.36 in 10.0 miles SSE 8.1 mph - N/A   Overcast
6:53 AM 37.0°F 34.0°F 89% 30.35 in 10.0 miles SE 5.8 mph - N/A   Overcast
7:02 AM 37.0°F 34.0°F 89% 30.34 in 10.0 miles SE 5.8 mph - N/A   Overcast
7:53 AM 37.0°F 34.0°F 89% 30.36 in 10.0 miles SSE 8.1 mph - N/A   Overcast
8:15 AM 37.0°F 34.0°F 89% 30.36 in 10.0 miles SSE 6.9 mph - N/A   Overcast
8:38 AM 37.0°F 34.0°F 89% 30.36 in 10.0 miles SSE 9.2 mph - N/A   Overcast
8:53 AM 37.9°F 34.0°F 86% 30.38 in 10.0 miles SE 8.1 mph - N/A   Overcast
9:53 AM 39.0°F 34.0°F 82% 30.38 in 10.0 miles SE 8.1 mph - N/A   Overcast
10:53 AM 39.9°F 35.1°F 83% 30.38 in 10.0 miles SE 8.1 mph - N/A   Overcast
11:53 AM 41.0°F 35.1°F 79% 30.37 in 10.0 miles ESE 9.2 mph - N/A   Overcast
12:53 PM 39.9°F 35.1°F 83% 30.36 in 10.0 miles ESE 9.2 mph - N/A   Overcast
1:42 PM 39.9°F 35.1°F 83% 30.35 in 10.0 miles East 8.1 mph - N/A   Overcast
1:53 PM 39.9°F 35.1°F 83% 30.36 in 10.0 miles East 4.6 mph - N/A   Overcast
2:53 PM 39.9°F 35.1°F 83% 30.35 in 10.0 miles East 5.8 mph - N/A   Overcast
3:53 PM 39.9°F 35.1°F 83% 30.36 in 10.0 miles ESE 5.8 mph - N/A   Overcast
4:51 PM 37.4°F 33.8°F 87% 30.35 in 10.0 miles East 5.8 mph - N/A   Scattered Clouds
4:53 PM 37.9°F 34.0°F 86% 30.36 in 10.0 miles East 4.6 mph - N/A   Partly Cloudy
5:53 PM 36.0°F 34.0°F 93% 30.36 in 9.0 miles ESE 3.5 mph - N/A   Clear
6:53 PM 33.1°F 30.9°F 92% 30.36 in 8.0 miles SE 4.6 mph - N/A   Clear
7:53 PM 32.0°F 30.9°F 96% 30.38 in 9.0 miles SE 5.8 mph - N/A   Clear
8:20 PM 33.1°F 30.9°F 92% 30.36 in 9.0 miles SSE 6.9 mph - N/A   Partly Cloudy
8:53 PM 32.0°F 30.9°F 96% 30.37 in 10.0 miles SE 4.6 mph - N/A   Clear
9:53 PM 30.9°F 30.9°F 100% 30.38 in 10.0 miles SE 6.9 mph - N/A   Clear
10:53 PM 33.1°F 30.9°F 92% 30.37 in 10.0 miles SE 8.1 mph - N/A   Clear
11:19 PM 30.9°F 30.0°F 96% 30.36 in 6.0 miles SE 5.8 mph - N/A   Scattered Clouds
11:27 PM 35.1°F 33.1°F 92% 30.37 in 7.0 miles SE 5.8 mph - N/A   Mostly Cloudy
11:53 PM 36.0°F 34.0°F 93% 30.39 in 10.0 miles ESE 5.8 mph - N/A   Overcast
Moon Phase
Jan. 19 Jan. 26 Feb. 03 Feb. 10 Feb. 17
Sunrise:07:55 AM (PST) Moon Rise:11:28 AM (PST)
Sunset:04:54 PM (PST) Moon Set:01:29 AM (PST)

Copyright © 2014 The Weather Underground, Inc.